Location: Haram ta Haram Freeway
(35.0583°N, 51.4202°E)
Time: 13:57:03
(UTC+04:30)

CAS-4A - Pass Details

Date: 10 July 2020
Orbit: 528 x 545 km, 43.0° (Epoch: 02 August)

Event Time Altitude Azimuth Distance (km) Brightness Sun altitude
Exits shadow 04:06:54 17° 293° (WNW) 1,386 ? -19.0°
Maximum altitude 04:09:24 32° 347° (NNW) 929 ? -18.6°
Drops below altitude 10° 04:13:06 10° 52° (NE) 1,783 ? -18.1°
Sets 04:15:30 0° 62° (ENE) 2,671 ? -17.8°
